Tracking 28096 objects as of 29-Sep-2023
HD Live streaming from Space Station
objects crossing your sky now

NOAA 17 DEB

Track NOAA 17 DEB now!
10-day predictions


NORAD ID: 48727
Int'l Code: 2002-032BM
Perigee: 734.1 km
Apogee: 798.0 km
Inclination: 98.8 °
Period: 100.0 minutes
Semi major axis: 7137 km
RCS: Unknown
Launch date: June 24, 2002
Source: United States (US)
Launch site: AIR FORCE WESTERN TEST RANGE (AFWTR)

Note: This is SATELLITE DEBRIS
Your satellite tracking list
Your tracking list is empty




NASA's NSSDC Master Catalog

Two Line Element Set (TLE):
1 48727U 02032BL  23271.83528439  .00020235  00000-0  63606-2 0  9997
2 48727  98.7537 234.6370 0044814  49.2158 311.2904 14.39878840128153
Source of the keplerian elements: AFSPC